Location: Arcueil
(48.7999°N, 2.3326°E)
Time: 10:08:44
(UTC+00:00)

Cosmos 1190 Rocket - Pass Details

Date: 03 February 2023
Orbit: 756 x 778 km, 74.1° (Epoch: 23 March)

Event Time Altitude Azimuth Distance (km) Brightness Sun altitude
Rises 17:33:14 0° 189° (S) 3,247 7.6 -7.3°
Reaches altitude 10° 17:35:38 10° 185° (S) 2,323 6.8 -7.7°
Maximum altitude 17:40:49 59° 108° (ESE) 900 4.1 -8.5°
Drops below altitude 10° 17:46:00 10° 30° (NNE) 2,330 6.1 -9.3°
Sets 17:48:25 0° 26° (NNE) 3,259 6.9 -9.7°
